Hourly Weather Ruklawki

Today, 22 April, Thursday

Time Temperature Precipitation Wind Pressure Humidity
00:00 +4°C° 0.2 mm 3 mps 745 mmHg 85%
01:00 +4°C° 0 mm 4 mps 745 mmHg 86%
02:00 +3°C° 0.1 mm 4 mps 745 mmHg 87%
03:00 +3°C° 0.1 mm 3 mps 745 mmHg 89%
04:00 +3°C° 0.1 mm 3 mps 745 mmHg 90%
05:00 +3°C° 0 mm 4 mps 745 mmHg 85%
06:00 +2°C° 0 mm 5 mps 745 mmHg 80%
07:00 +3°C° 0 mm 5 mps 745 mmHg 75%
08:00 +3°C° 0.1 mm 6 mps 745 mmHg 71%
09:00 +4°C° 0.1 mm 6 mps 745 mmHg 67%
10:00 +5°C° 0.1 mm 7 mps 745 mmHg 63%
11:00 +5°C° 0.2 mm 7 mps 745 mmHg 61%
12:00 +5°C° 0.2 mm 7 mps 745 mmHg 60%
13:00 +6°C° 0.2 mm 8 mps 745 mmHg 58%
14:00 +5°C° 0.3 mm 7 mps 746 mmHg 60%
15:00 +5°C° 0.3 mm 7 mps 746 mmHg 62%
16:00 +4°C° 0.3 mm 7 mps 746 mmHg 64%
17:00 +3°C° 0 mm 6 mps 746 mmHg 66%
18:00 +2°C° 0 mm 5 mps 746 mmHg 68%
19:00 +1°C° 0 mm 5 mps 747 mmHg 69%
20:00 +1°C° 0 mm 5 mps 747 mmHg 73%
21:00 +1°C° 0 mm 5 mps 747 mmHg 77%
22:00 0°C° 0 mm 5 mps 747 mmHg 80%
23:00 0°C° 0 mm 5 mps 747 mmHg 83%

Tomorrow, 23 April, Friday

Time Temperature Precipitation Wind Pressure Humidity
00:00 0°C° 0 mm 5 mps 747 mmHg 87%
01:00 0°C° 0 mm 5 mps 747 mmHg 90%
02:00 0°C° 0.1 mm 5 mps 748 mmHg 90%
03:00 -1°C° 0.1 mm 4 mps 748 mmHg 91%
04:00 -1°C° 0.1 mm 4 mps 748 mmHg 91%
05:00 0°C° 0 mm 5 mps 748 mmHg 85%
06:00 +1°C° 0 mm 5 mps 749 mmHg 78%
07:00 +2°C° 0 mm 6 mps 749 mmHg 71%
08:00 +3°C° 0.1 mm 6 mps 749 mmHg 64%
09:00 +4°C° 0.1 mm 6 mps 749 mmHg 57%
10:00 +5°C° 0.1 mm 6 mps 749 mmHg 50%
11:00 +5°C° 0.1 mm 6 mps 750 mmHg 50%
12:00 +5°C° 0.1 mm 6 mps 750 mmHg 49%
13:00 +4°C° 0.1 mm 6 mps 750 mmHg 49%
14:00 +4°C° 0 mm 6 mps 750 mmHg 48%
15:00 +4°C° 0 mm 6 mps 751 mmHg 47%
16:00 +4°C° 0 mm 6 mps 751 mmHg 46%
17:00 +2°C° 0 mm 5 mps 751 mmHg 52%
18:00 +1°C° 0 mm 5 mps 751 mmHg 59%
19:00 0°C° 0 mm 4 mps 751 mmHg 66%
20:00 0°C° 0 mm 3 mps 752 mmHg 70%
21:00 -1°C° 0 mm 3 mps 752 mmHg 75%
22:00 -2°C° 0 mm 3 mps 752 mmHg 80%
23:00 -2°C° 0 mm 3 mps 752 mmHg 79%

Day after tomorrow, 24 April, Saturday

Time Temperature Precipitation Wind Pressure Humidity
00:00 -2°C° 0 mm 3 mps 752 mmHg 78%
01:00 -2°C° 0 mm 3 mps 752 mmHg 77%
02:00 -2°C° 0 mm 3 mps 752 mmHg 76%
03:00 -2°C° 0 mm 3 mps 752 mmHg 74%
04:00 -2°C° 0 mm 3 mps 752 mmHg 73%
05:00 0°C° 0 mm 3 mps 752 mmHg 67%
06:00 0°C° 0 mm 4 mps 752 mmHg 62%
07:00 +2°C° 0 mm 5 mps 752 mmHg 56%
08:00 +3°C° 0 mm 5 mps 752 mmHg 50%
09:00 +4°C° 0 mm 6 mps 752 mmHg 45%
10:00 +7°C° 0 mm 6 mps 752 mmHg 39%
11:00 +6°C° 0 mm 7 mps 752 mmHg 39%
12:00 +6°C° 0 mm 7 mps 752 mmHg 39%
13:00 +6°C° 0 mm 7 mps 752 mmHg 40%
14:00 +5°C° 0 mm 7 mps 752 mmHg 42%
15:00 +4°C° 0 mm 7 mps 752 mmHg 45%
16:00 +4°C° 0 mm 6 mps 752 mmHg 47%
17:00 +2°C° 0 mm 5 mps 752 mmHg 53%
18:00 +1°C° 0 mm 4 mps 752 mmHg 59%
19:00 0°C° 0 mm 3 mps 753 mmHg 65%
20:00 -1°C° 0 mm 3 mps 753 mmHg 70%
21:00 -2°C° 0 mm 2 mps 753 mmHg 74%
22:00 -3°C° 0 mm 2 mps 753 mmHg 79%
23:00 -3°C° 0 mm 2 mps 753 mmHg 79%

25 April, Sunday

Time Temperature Precipitation Wind Pressure Humidity
00:00 -3°C° 0 mm 2 mps 752 mmHg 80%
01:00 -3°C° 0 mm 2 mps 752 mmHg 80%
02:00 -3°C° 0 mm 2 mps 752 mmHg 79%
03:00 -2°C° 0 mm 2 mps 752 mmHg 78%
04:00 -2°C° 0 mm 2 mps 752 mmHg 77%
05:00 -1°C° 0 mm 3 mps 752 mmHg 70%
06:00 +1°C° 0 mm 3 mps 752 mmHg 64%
07:00 +1°C° 0 mm 4 mps 751 mmHg 57%
08:00 +3°C° 0.1 mm 4 mps 751 mmHg 52%
09:00 +3°C° 0.1 mm 5 mps 751 mmHg 48%
10:00 +4°C° 0.1 mm 6 mps 751 mmHg 44%
11:00 +4°C° 0.2 mm 6 mps 751 mmHg 45%
12:00 +4°C° 0.2 mm 6 mps 751 mmHg 46%
13:00 +4°C° 0.2 mm 7 mps 751 mmHg 47%
14:00 +4°C° 0 mm 7 mps 751 mmHg 48%
15:00 +3°C° 0 mm 7 mps 751 mmHg 48%
16:00 +3°C° 0 mm 6 mps 751 mmHg 48%
17:00 +2°C° 0 mm 6 mps 751 mmHg 55%
18:00 0°C° 0 mm 5 mps 751 mmHg 62%
19:00 -1°C° 0 mm 4 mps 751 mmHg 70%
20:00 -1°C° 0 mm 3 mps 751 mmHg 73%
21:00 -1°C° 0 mm 3 mps 751 mmHg 77%
22:00 -2°C° 0 mm 2 mps 751 mmHg 80%
23:00 -2°C° 0 mm 2 mps 751 mmHg 81%

26 April, Monday

Time Temperature Precipitation Wind Pressure Humidity
00:00 -4°C° 0 mm 3 mps 750 mmHg 82%
01:00 -4°C° 0 mm 3 mps 750 mmHg 82%
02:00 -4°C° 0 mm 3 mps 750 mmHg 79%
03:00 -2°C° 0 mm 3 mps 749 mmHg 76%
04:00 -2°C° 0 mm 3 mps 749 mmHg 73%
05:00 -2°C° 0 mm 4 mps 749 mmHg 70%
06:00 0°C° 0 mm 4 mps 748 mmHg 68%
07:00 +1°C° 0 mm 5 mps 748 mmHg 66%
08:00 +1°C° 0.3 mm 5 mps 748 mmHg 72%
09:00 +1°C° 0.3 mm 5 mps 748 mmHg 79%
10:00 +2°C° 0.3 mm 5 mps 749 mmHg 85%
11:00 +2°C° 0.2 mm 5 mps 749 mmHg 80%
12:00 +3°C° 0.2 mm 6 mps 749 mmHg 74%
13:00 +3°C° 0.2 mm 6 mps 749 mmHg 69%
14:00 +3°C° 0.1 mm 6 mps 749 mmHg 69%
15:00 +3°C° 0.1 mm 6 mps 749 mmHg 68%
16:00 +3°C° 0.1 mm 5 mps 749 mmHg 68%
17:00 +3°C° 0 mm 4 mps 749 mmHg 73%
18:00 +1°C° 0 mm 4 mps 750 mmHg 79%
19:00 +1°C° 0 mm 3 mps 750 mmHg 84%
20:00 0°C° 0 mm 3 mps 750 mmHg 88%
21:00 -1°C° 0 mm 2 mps 750 mmHg 92%
22:00 -2°C° 0 mm 2 mps 750 mmHg 95%
23:00 -1°C° 0 mm 2 mps 750 mmHg 96%

27 April, Tuesday

Time Temperature Precipitation Wind Pressure Humidity
00:00 -1°C° 0 mm 2 mps 750 mmHg 96%
01:00 -1°C° 0 mm 2 mps 750 mmHg 96%
02:00 +1°C° 0 mm 2 mps 750 mmHg 95%
03:00 +1°C° 0 mm 2 mps 750 mmHg 95%
04:00 +2°C° 0 mm 2 mps 750 mmHg 95%
05:00 +3°C° 0 mm 2 mps 750 mmHg 93%
06:00 +3°C° 0 mm 2 mps 750 mmHg 92%
07:00 +4°C° 0 mm 2 mps 750 mmHg 90%
08:00 +4°C° 0 mm 2 mps 750 mmHg 84%
09:00 +5°C° 0 mm 2 mps 750 mmHg 78%
10:00 +7°C° 0 mm 1 mps 750 mmHg 72%
11:00 +7°C° 0 mm 1 mps 749 mmHg 69%
12:00 +8°C° 0 mm 1 mps 749 mmHg 65%
13:00 +8°C° 0 mm 1 mps 749 mmHg 62%
14:00 +8°C° 0 mm 1 mps 748 mmHg 61%
15:00 +9°C° 0 mm 1 mps 748 mmHg 61%
16:00 +9°C° 0 mm 1 mps 748 mmHg 60%
17:00 +7°C° 0 mm 2 mps 748 mmHg 64%
18:00 +6°C° 0 mm 2 mps 748 mmHg 68%
19:00 +5°C° 0 mm 2 mps 747 mmHg 73%
20:00 +5°C° 0 mm 2 mps 747 mmHg 76%
21:00 +4°C° 0 mm 2 mps 747 mmHg 79%
22:00 +4°C° 0 mm 2 mps 747 mmHg 82%
23:00 +3°C° 0 mm 2 mps 747 mmHg 86%
Show more